Flag for Colombia Weather past 2 weeks in Medellin, Colombia

Now
54 °F

Fog.


Feels Like: 54 °F
Forecast: 66 / 89 °F
Wind: No wind

Location: Rionegro / J. M. Cordova

Current Time: May 23, 2015 at 7:07:58 AM

Latest Report: May 23, 2015 at 6:00 AM


Visibility: 0 mi

Pressure: 30.34 "Hg

Humidity: 100%

Dew point: 54 °F

Location of MedellinLocation

Historic Weather in Medellin — Graph

°F

Medellin temperature yesterday

Maximum temperature yesterday: 72 °F (at 12:00 PM)
Minimum temperature yesterday: 57 °F (at 6:00 AM)
Average temperature yesterday: 64 °F

Past Weeks' High & Low Weather Summary

 TemperatureHumidityPressure
High77 °F (May 17, 6:00 PM)100% (May 9, 5:00 AM)30.40 "Hg (May 9, 5:00 AM)
Low54 °F (May 9, 5:00 AM)36% (May 12, 1:00 PM)30.05 "Hg (May 9, 8:00 AM)
Average65 °F76%30.28 "Hg
* Reported May 8 6:00 AM — May 23 6:00 AM, Medellin, Weather by CustomWeather, © 2015

Note: Actual official high and low records may vary slightly from our data, if they occured in-between our weather recording intervals... More about our weather records

Advertising

Medellin weather history for previous 24 hours

 ConditionsComfort  
Time TempWeatherWind HumidityBarometerVisibility
6:00 AM
Sat, May 23
54 °FFog.No wind100%30.34 "Hg1 mi
5:00 AM54 °FFog.No wind100%30.33 "Hg5 mi
4:00 AM55 °FFog.No wind94%30.33 "Hg1 mi
3:00 AM55 °FFog.No wind100%30.33 "Hg4 mi
2:00 AM57 °FPassing clouds.5 mph94%30.33 "HgN/A
1:00 AM59 °FPassing clouds.No wind94%30.27 "Hg4 mi
12:00 AM61 °FPartly cloudy.No wind94%30.37 "Hg6 mi
11:00 PM
Fri, May 22
61 °FPartly cloudy.No wind94%30.38 "Hg6 mi
10:00 PM63 °FPartly cloudy.No wind88%30.38 "Hg6 mi
9:00 PM63 °FPassing clouds.No wind94%30.37 "HgN/A
8:00 PM63 °FPassing clouds.No wind88%30.35 "HgN/A
7:00 PM64 °FPassing clouds.5 mph78%30.32 "HgN/A
6:00 PM68 °FPartly sunny.7 mph69%30.28 "HgN/A
5:00 PM70 °FPartly sunny.7 mph60%30.27 "HgN/A
4:00 PM70 °FPartly sunny.9 mph60%30.27 "HgN/A
3:00 PM72 °FPartly sunny.9 mph50%30.30 "HgN/A
2:00 PM72 °FBroken clouds.12 mph50%30.32 "HgN/A
1:00 PM72 °FScattered clouds.14 mph65%30.35 "HgN/A
12:00 PM72 °FScattered showers. Broken clouds.12 mph65%30.37 "HgN/A
11:00 AM70 °FScattered clouds.7 mph64%30.38 "HgN/A
10:00 AM66 °FScattered clouds.5 mph73%30.39 "HgN/A
9:00 AM64 °FBroken clouds.5 mph78%30.40 "HgN/A
8:00 AM61 °FBroken clouds.No wind88%30.38 "Hg6 mi
7:00 AM59 °FPartly sunny.No wind94%30.36 "Hg2 mi
Weather by CustomWeather, © 2015

See weather overviewHow to use our weather pages